Flag for U.S.A. Weather past 2 weeks in Boulder, Colorado, U.S.A.

Now
73 °F

Scattered clouds.


Feels Like: 77 °F
Forecast: 61 / 95 °F
Wind: No wind

Location: Broomfield / Jeffco

Current Time: Jun 30, 2015 at 9:23:24 AM

Latest Report: Jun 30, 2015 at 8:45 AM


Visibility: 40 mi

Pressure: 30.20 "Hg

Humidity: 50%

Dew point: 54 °F

Location of BoulderLocation

Historic Weather in Boulder — Graph

°F

Boulder temperature yesterday

Maximum temperature yesterday: 86 °F (at 3:46 PM)
Minimum temperature yesterday: 63 °F (at 12:16 AM)
Average temperature yesterday: 71 °F

Past Weeks' High & Low Weather Summary

 TemperatureHumidityPressure
High91 °F (Jun 19, 1:45 PM)94% (Jun 16, 3:33 AM)30.35 "Hg (Jun 16, 3:33 AM)
Low54 °F (Jun 17, 5:35 AM)15% (Jun 19, 1:45 PM)29.94 "Hg (Jun 19, 6:47 PM)
Average69 °F57%30.17 "Hg
* Reported Jun 15 7:45 AM — Jun 30 7:55 AM, Boulder, Weather by CustomWeather, © 2015

Note: Actual official high and low records may vary slightly from our data, if they occured in-between our weather recording intervals... More about our weather records

Advertising

Boulder weather history for previous 24 hours

 ConditionsComfort  
Time TempWeatherWind HumidityBarometerVisibility
7:55 AM
Tue, Jun 30
70 °FScattered clouds.No wind53%30.20 "Hg40 mi
6:47 AM64 °FScattered clouds.No wind60%30.21 "Hg40 mi
5:56 AM64 °FClear.No wind52%30.20 "Hg10 mi
5:35 AM63 °FClear.No wind59%30.20 "Hg10 mi
5:16 AM64 °FClear.No wind52%30.19 "Hg10 mi
4:56 AM64 °FClear.No wind56%30.19 "Hg10 mi
4:36 AM64 °FClear.No wind56%30.20 "Hg10 mi
4:16 AM64 °FClear.No wind52%30.20 "Hg10 mi
3:56 AM64 °FClear.No wind56%30.20 "Hg10 mi
3:36 AM64 °FClear.No wind56%30.20 "Hg10 mi
3:16 AM64 °FClear.No wind56%30.21 "Hg10 mi
2:56 AM64 °FClear.3 mph56%30.21 "Hg10 mi
2:36 AM64 °FClear.7 mph52%30.21 "Hg10 mi
2:16 AM64 °FClear.8 mph56%30.21 "Hg10 mi
1:56 AM64 °FClear.9 mph56%30.21 "Hg10 mi
1:36 AM64 °FClear.9 mph56%30.22 "Hg10 mi
1:16 AM64 °FClear.9 mph60%30.22 "Hg10 mi
12:56 AM68 °FClear.9 mph49%30.23 "Hg10 mi
12:36 AM64 °FClear.9 mph60%30.24 "Hg10 mi
12:16 AM68 °FClear.8 mph53%30.24 "Hg10 mi
11:56 PM
Mon, Jun 29
64 °FClear.9 mph60%30.25 "Hg10 mi
11:35 PM70 °FClear.3 mph50%30.25 "Hg10 mi
11:16 PM68 °FClear.6 mph53%30.25 "Hg10 mi
9:50 PM73 °FPassing clouds.5 mph41%30.25 "Hg20 mi
8:45 PM77 °FScattered clouds.7 mph36%30.24 "Hg20 mi
7:50 PM79 °FScattered clouds.6 mph42%30.24 "Hg30 mi
6:45 PM84 °FScattered clouds.No wind29%30.23 "Hg30 mi
4:47 PM82 °FBroken clouds.8 mph28%30.24 "Hg40 mi
3:46 PM86 °FBroken clouds.9 mph27%30.25 "Hg40 mi
1:49 PM84 °FScattered clouds.5 mph29%30.28 "Hg50 mi
12:47 PM82 °FScattered clouds.5 mph30%30.29 "Hg50 mi
11:47 AM81 °FPleasantly warm.5 mph34%30.29 "Hg50 mi
10:51 AM77 °FPassing clouds.6 mph39%30.28 "Hg50 mi
9:46 AM73 °FPassing clouds.3 mph50%30.29 "Hg50 mi
Weather by CustomWeather, © 2015

See weather overviewHow to use our weather pages